Location: Newark
(12.4436°N, 0.6167°W)
Time: 14:02:38
(UTC+00:00)

deb Explorer IX - Pass Details

Date: 16 December 2019
Orbit: 548 x 1101 km, 38.8° (Epoch: 22 January)

Event Time Altitude Azimuth Distance (km) Brightness Sun altitude
Rises 21:14:31 0° 305° (NW) 3,735 ? -49.7°
Enters shadow 21:15:13 - 305° (NW) 3,496 ? -49.9°
Reaches altitude 10° 21:17:08 10° 304° (WNW) 2,840 - -50.3°
Maximum altitude 21:24:09 72° 221° (SW) 1,141 - -51.9°
Drops below altitude 10° 21:31:27 10° 137° (SE) 2,940 - -53.6°
Sets 21:34:11 0° 135° (SE) 3,873 - -54.2°
